Orbital Elements at Epoch 2459000.5 (2020-May-31.0) TDB
Reference: JPL 13 (heliocentric ecliptic J2000)
Element | Value | Uncertainty (1-sigma) | Units |
e | .08207609164026601 | 3.8006e-08 | |
a | 3.057969720993438 | 3.1052e-08 | au |
q | 2.806983517940022 | 1.2861e-07 | au |
i | 10.08388498558284 | 5.8829e-06 | deg |
node | 175.6801396588218 | 2.2836e-05 | deg |
peri | 106.7466983357544 | 4.7339e-05 | deg |
M | 286.7907356964902 | 3.9584e-05 | deg |
tp | 2459397.702286580103 (2021-Jul-02.20228658) | 0.00021581 | TDB |
period | 1953.206667615449 5.35 | 2.975e-05 8.145e-08 | d yr |
n | .1843122931991125 | 2.8073e-09 | deg/d |
Q | 3.308955924046855 | 3.36e-08 | au |
|
| | Orbit Determination Parameters
Additional Information
|